This demonstration page uses our WeatherBlox Daily Observations layout. Learn more.

Left ArrowRight Arrow

39.08367, -84.50855

Hourly Observations for December 21, 2019

Temp ( °F °C ) Dew Point ( °F °C ) Humidity (%) Winds ( mph kmh ) Pressure ( in mb ) Visibility ( mi km ) Precip ( " mm )
12:53 am 00:53 Clear 29 -1.7 28 -2.2 96 96 N N/A 30.48 1032 10 16 N/A
1:53 am 01:53 Clear 28 -2.2 27 -2.8 96 96 N N/A 30.47 1032 9 14 N/A
2:53 am 02:53 Clear 29 -1.7 27 -2.8 92 92 N N/A 30.48 1032 9 14 N/A
3:53 am 03:53 Clear 29 -1.7 27 -2.8 92 92 N N/A 30.48 1032 10 16 N/A
4:53 am 04:53 Clear 30 -1.1 28 -2.2 92 92 N N/A 30.46 1032 9 14 N/A
5:53 am 05:53 Clear 28 -2.2 27 -2.8 96 96 N N/A 30.46 1032 8 13 N/A
6:53 am 06:53 Clear with Mist and Fog 27 -2.8 26 -3.3 96 96 NE 3 6 30.48 1032 5 8 N/A
7:53 am 07:53 Clear 28 -2.2 27 -2.8 96 96 N N/A 30.47 1032 8 13 N/A
8:53 am 08:53 Sunny 30 -1.1 29 -1.7 96 96 N N/A 30.48 1032 8 13 N/A
9:53 am 09:53 Sunny 32 undefined 30 -1.1 92 92 N N/A 30.48 1032 8 13 N/A
10:53 am 10:53 Sunny 38 3.3 33 0.6 83 83 SSW 3 6 30.48 1032 10 16 N/A
11:53 am 11:53 Sunny 46 7.8 31 -0.6 56 56 N N/A 30.45 1031 10 16 N/A
12:53 pm 12:53 Sunny 50 10 31 -0.6 48 48 N N/A 30.43 1030 10 16 N/A
1:53 pm 13:53 Sunny 53 11.7 29 -1.7 40 40 WSW 8 13 30.40 1029 10 16 N/A
2:53 pm 14:53 Sunny 53 11.7 27 -2.8 37 37 SSW 6 9 30.38 1029 10 16 N/A
3:53 pm 15:53 Sunny 51 10.6 28 -2.2 41 41 WSW 7 11 30.38 1029 10 16 N/A
4:53 pm 16:53 Sunny 44 6.7 28 -2.2 53 53 SSW 6 9 30.38 1029 10 16 N/A
5:53 pm 17:53 Clear 38 3.3 30 -1.1 73 73 N N/A 30.40 1029 10 16 N/A
6:53 pm 18:53 Clear 35 1.7 30 -1.1 82 82 N N/A 30.41 1030 10 16 N/A
7:53 pm 19:53 Clear 32 undefined 29 -1.7 88 88 N N/A 30.43 1030 10 16 N/A
8:53 pm 20:53 Clear 31 -0.6 28 -2.2 89 89 N N/A 30.43 1031 10 16 N/A
9:53 pm 21:53 Clear 28 -2.2 27 -2.8 96 96 NE 3 6 30.43 1031 10 16 N/A
10:53 pm 22:53 Clear 28 -2.2 26 -3.3 92 92 N N/A 30.43 1030 8 13 N/A
11:53 pm 23:53 Clear 28 -2.2 26 -3.3 92 92 N N/A 30.43 1031 8 13 N/A

Powered by AerisWeather